Regional Weather Roundup
Issued by NWS

Home | Current Version | Previous Version | Graphics & Text | Print | Product List | Glossary On
Versions: 1 2 3 4 5 6 7 8 9 10 11 12 13 14 15 16 17 18 19 20 21 22 23 24 25 26 27 28 29 30 31 32 33 34 35 36 37 38 39 40 41 42 43 44 45 46 47 48 49 50
179
ASUS43 KLSX 082110
RWRMO

WEATHER SUMMARY FOR MISSOURI
NATIONAL WEATHER SERVICE SPRINGFIELD MO
300 PM CST MON FEB 08 2016

NOTE: "FAIR" INDICATES FEW OR NO CLOUDS BELOW 12,000 FEET WITH NO
       SIGNIFICANT WEATHER AND/OR OBSTRUCTIONS TO VISIBILITY.
       CURRENT SKY AND/OR WEATHER CONDITIONS ARE NOT AVAILABLE FOR
       CHILLICOTHE AND FARMINGTON.

MOZ001>031-035>038-043-044-053-054-082200-
...NORTHERN AND WESTERN MISSOURI...

CITY           SKY/WX    TMP DP  RH WIND       PRES   REMARKS
KANSAS CTY INT CLOUDY    32  16  51 NW26G38   30.04S WCI  18
KANSAS C DTWN  CLOUDY    33  17  51 NW23G32   30.05S WCI  21
LEE`S SUMMIT   CLOUDY    31  17  56 NW25G33   30.04S WCI  17
ST JOSEPH      CLOUDY    31  16  54 N23G37    30.08R WCI  18
CHILLICOTHE      N/A     27  16  63 NW14G32   30.01F WCI  16
KIRKSVILLE     CLOUDY    22   9  57 NW18G28   29.94R WCI   7

$$
MOZ066>068-077>081-088>096-101>105-082200-
...SOUTHWEST MISSOURI...

CITY           SKY/WX    TMP DP  RH WIND       PRES   REMARKS
SPRINGFIELD    CLOUDY    33  15  47 NW23G32   30.00S WCI  21
JOPLIN         CLOUDY    37  17  44 NW23G33   30.09F WCI  26

$$
MOZ032>034-039>042-045>050-055>058-069>072-082200-
...CENTRAL MISSOURI...

CITY           SKY/WX    TMP DP  RH WIND       PRES   REMARKS
COLUMBIA       CLOUDY    26  12  55 NW28G36   29.94R WCI  10
JEFFERSON CITY CLOUDY    29  14  53 NW16G28   29.97R WCI  17
ROLLA          CLOUDY    26  16  65 W18G28    29.91R WCI  13
SEDALIA        CLOUDY    29  16  58 NW28G35   30.02R WCI  14
WHITEMAN AFB   FLURRIES  29  17  59 NW22G32   30.00S WCI  16
WARRENSBURG    FLURRIES  30  21  69 NW16G23   30.04S WCI  19
OSAGE BEACH    CLOUDY    30  16  55 W12G28    29.98R WCI  21

$$
MOZ051-052-059>065-082200-
...EAST CENTRAL MISSOURI...

CITY           SKY/WX    TMP DP  RH WIND       PRES   REMARKS
ST LOUIS INTL  FLURRIES  26  12  55 NW23G35   29.90R WCI  11
SPIRIT OF STL  FLURRIES  26  13  57 NW23G29   29.92R WCI  11
ST CHARLES     LGT SNOW  25  17  72 NW20G25   29.91R WCI  11

$$
MOZ072>076-082>087-097>100-106>115-082200-
...SOUTH CENTRAL AND SOUTHEAST MISSOURI...

CITY           SKY/WX    TMP DP  RH WIND       PRES   REMARKS
CAPE GIRARDEAU CLOUDY    33  18  53 NW15      29.90R WCI  23
FARMINGTON     FLURRIES  27  19  72 NW16G22   29.90R WCI  15
POPLAR BLUFF   CLOUDY    36  18  48 NW21G29   29.91R WCI  25
WEST PLAINS    FLURRIES  32  16  51 NW16G31   29.96R WCI  21

$$




USA.gov is the U.S. government's official web portal to all federal, state and local government web resources and services.